YO2LC Weather Reports


time (UTC)temp
C
wind
direction
speed
KPH
gust
KPH
rain 1hr
cm
rain 24hr
cm
rain mn
cm
humidity
%
barometer
mb
20260507210116 17 170 0.0 0.0 0.00 0.00 0.00 74 1015.8
20260507205553 17 170 0.0 0.0 0.00 0.00 0.00 73 1015.7
20260507205053 16 170 0.0 0.0 0.00 0.00 0.00 74 1015.8
20260507204559 16 170 0.0 0.0 0.00 0.00 0.00 76 1015.6
20260507204055 16 170 0.0 0.0 0.00 0.00 0.00 76 1015.6
20260507203550 17 170 0.0 0.0 0.00 0.00 0.00 74 1015.5
20260507203056 17 170 0.0 0.0 0.00 0.00 0.00 74 1015.5
20260507202550 17 170 0.0 0.0 0.00 0.00 0.00 72 1015.6
20260507202046 17 170 0.0 0.0 0.00 0.00 0.00 73 1015.7
20260507201546 17 170 0.0 0.0 0.00 0.00 0.00 73 1015.8
20260507201045 17 170 0.0 0.0 0.00 0.00 0.00 72 1015.7
20260507200546 17 170 0.0 0.0 0.00 0.00 0.00 72 1015.6
20260507200055 17 170 0.0 0.0 0.00 0.00 0.00 72 1015.6
20260507195546 17 170 0.0 0.0 0.00 0.00 0.00 72 1015.6
20260507195042 17 170 0.0 0.0 0.00 0.00 0.00 72 1015.5
20260507194542 17 170 0.0 0.0 0.00 0.00 0.00 71 1015.6
20260507194042 18 170 0.0 0.0 0.00 0.00 0.00 70 1015.6
20260507193540 18 170 0.0 0.0 0.00 0.00 0.00 67 1015.6
20260507193104 18 170 0.0 0.0 0.00 0.00 0.00 64 1015.5
20260507192538 18 170 0.0 0.0 0.00 0.00 0.00 63 1015.5
20260507192040 18 170 0.0 0.0 0.00 0.00 0.00 63 1015.6
20260507191537 18 170 0.0 0.0 0.00 0.00 0.00 63 1015.5
20260507191038 18 170 0.0 0.0 0.00 0.00 0.00 63 1015.4
20260507190537 19 170 0.0 0.0 0.00 0.00 0.00 63 1015.5
20260507190039 19 170 0.0 0.0 0.00 0.00 0.00 62 1015.4
20260507185535 19 170 0.0 0.0 0.00 0.00 0.00 62 1015.4
20260507185035 19 170 0.0 0.0 0.00 0.00 0.00 61 1015.3
20260507184534 20 170 0.0 0.0 0.00 0.00 0.00 60 1015.2
20260507184033 20 170 0.0 0.0 0.00 0.00 0.00 60 1015.2
20260507183533 20 170 0.0 0.0 0.00 0.00 0.00 60 1015.1
20260507183039 20 170 0.0 0.0 0.00 0.00 0.00 60 1015.0
20260507182532 20 170 0.0 0.0 0.00 0.00 0.00 60 1015.0
20260507182031 20 170 0.0 0.0 0.00 0.00 0.00 60 1015.0
20260507181530 20 170 0.0 0.0 0.00 0.00 0.00 60 1014.9
20260507181030 20 170 0.0 0.0 0.00 0.00 0.00 60 1014.9
20260507180530 20 170 0.0 0.0 0.00 0.00 0.00 61 1014.9
20260507180029 20 170 0.0 0.0 0.00 0.00 0.00 61 1014.8
20260507175528 20 170 0.0 0.0 0.00 0.00 0.00 60 1014.8
20260507175031 20 170 0.0 0.0 0.00 0.00 0.00 60 1014.8
20260507174527 20 170 0.0 0.0 0.00 0.00 0.00 60 1014.8
20260507174026 20 170 0.0 0.0 0.00 0.00 0.00 60 1014.7
20260507173526 20 170 0.0 0.0 0.00 0.00 0.00 60 1014.7
20260507173026 20 170 0.0 0.0 0.00 0.00 0.00 60 1014.6
20260507172525 20 170 0.0 0.0 0.00 0.00 0.00 60 1014.6
20260507172024 20 170 0.0 0.0 0.00 0.00 0.00 60 1014.5
20260507171524 20 170 0.0 0.0 0.00 0.00 0.00 60 1014.5
20260507171026 21 170 0.0 0.0 0.00 0.00 0.00 60 1014.4
20260507170523 21 170 0.0 0.0 0.00 0.00 0.00 60 1014.5
20260507170022 21 170 0.0 0.0 0.00 0.00 0.00 60 1014.4
20260507165523 21 170 0.0 0.0 0.00 0.00 0.00 58 1014.3
20260507165025 21 170 0.0 0.0 0.00 0.00 0.00 58 1014.3
20260507164520 22 170 0.0 0.0 0.00 0.00 0.00 57 1014.3
20260507164023 22 170 0.0 0.0 0.00 0.00 0.00 57 1014.1
20260507163519 22 170 0.0 0.0 0.00 0.00 0.00 56 1014.1
20260507163017 22 170 0.0 0.0 0.00 0.00 0.00 56 1014.1
20260507162518 22 170 0.0 0.0 0.00 0.00 0.00 55 1014.3
20260507162018 22 170 0.0 0.0 0.00 0.00 0.00 55 1014.3
20260507161519 22 170 0.0 0.0 0.00 0.00 0.00 56 1014.3
20260507161012 22 170 0.0 0.0 0.00 0.00 0.00 56 1014.3
20260507160514 23 170 0.0 0.0 0.00 0.00 0.00 55 1014.2
20260507160027 23 170 0.0 0.0 0.00 0.00 0.00 56 1014.2
20260507155514 23 170 0.0 0.0 0.00 0.00 0.00 55 1014.1
20260507155010 23 170 0.0 0.0 0.00 0.00 0.00 55 1014.3
20260507154513 23 170 0.0 0.0 0.00 0.00 0.00 56 1014.1
20260507154010 22 170 0.0 0.0 0.00 0.00 0.00 55 1014.2
20260507153508 22 170 0.0 0.0 0.00 0.00 0.00 56 1014.2
20260507153108 22 170 0.0 0.0 0.00 0.00 0.00 56 1014.2
20260507152506 22 170 0.0 0.0 0.00 0.00 0.00 56 1014.2
20260507152009 22 170 0.0 0.0 0.00 0.00 0.00 56 1014.3
20260507151507 22 170 0.0 0.0 0.00 0.00 0.00 56 1014.4
20260507151006 22 170 0.0 0.0 0.00 0.00 0.00 55 1014.5
20260507150505 22 170 0.0 0.0 0.00 0.00 0.00 55 1014.4
20260507150006 22 170 0.0 0.0 0.00 0.00 0.00 56 1014.6
20260507145505 22 170 0.0 0.0 0.00 0.00 0.00 56 1014.5
20260507145002 22 170 0.0 0.0 0.00 0.00 0.00 56 1014.6
20260507144502 22 170 0.0 0.0 0.00 0.00 0.00 55 1014.6
20260507144001 22 170 0.0 0.0 0.00 0.00 0.00 55 1014.7
20260507143501 22 170 0.0 0.0 0.00 0.00 0.00 54 1014.7
20260507143115 22 170 0.0 0.0 0.00 0.00 0.00 54 1014.6
20260507142600 22 170 0.0 0.0 0.00 0.00 0.00 54 1014.6
20260507142058 22 170 0.0 0.0 0.00 0.00 0.00 54 1014.5
20260507141618 22 170 0.0 0.0 0.00 0.00 0.00 54 1014.6
20260507141056 22 170 0.0 0.0 0.00 0.00 0.00 54 1014.5
20260507140557 23 170 0.0 0.0 0.00 0.00 0.00 53 1014.5
20260507135557 23 170 0.0 0.0 0.00 0.00 0.00 53 1014.4
20260507135053 23 170 0.0 0.0 0.00 0.00 0.00 54 1014.3
20260507134601 23 170 0.0 0.0 0.00 0.00 0.00 56 1014.5
20260507134051 22 170 0.0 0.0 0.00 0.00 0.00 57 1014.6
20260507133550 22 170 0.0 0.0 0.00 0.00 0.00 57 1014.6
20260507133051 22 170 0.0 0.0 0.00 0.00 0.00 57 1014.8
20260507132549 22 170 0.0 0.0 0.00 0.00 0.00 57 1014.7
20260507132048 22 170 0.0 0.0 0.00 0.00 0.00 58 1014.8
20260507131549 22 170 0.0 0.0 0.00 0.00 0.00 59 1014.9
20260507131048 22 170 0.0 0.0 0.00 0.00 0.00 58 1014.8
20260507130545 22 170 0.0 0.0 0.00 0.00 0.00 57 1014.9
20260507130045 22 170 0.0 0.0 0.00 0.00 0.00 58 1014.9
20260507125545 22 170 0.0 0.0 0.00 0.00 0.00 57 1014.9
20260507125045 22 170 0.0 0.0 0.00 0.00 0.00 57 1014.9
20260507124544 22 170 0.0 0.0 0.00 0.00 0.00 56 1015.0
20260507124043 22 170 0.0 0.0 0.00 0.00 0.00 55 1014.9
20260507123544 23 170 0.0 0.0 0.00 0.00 0.00 54 1015.1
20260507123046 23 170 0.0 0.0 0.00 0.00 0.00 53 1015.0
20260507122540 23 170 0.0 0.0 0.00 0.00 0.00 53 1015.0
20260507122040 23 170 0.0 0.0 0.00 0.00 0.00 52 1015.0
20260507121539 23 170 0.0 0.0 0.00 0.00 0.00 51 1015.1
20260507121040 23 170 0.0 0.0 0.00 0.00 0.00 51 1015.1
20260507120536 23 170 0.0 0.0 0.00 0.00 0.00 53 1015.1
20260507120036 23 170 0.0 0.0 0.00 0.00 0.00 55 1015.1
20260507115533 23 170 0.0 0.0 0.00 0.00 0.00 55 1015.1
20260507115031 23 170 0.0 0.0 0.00 0.00 0.00 55 1015.2
20260507114530 22 170 0.0 0.0 0.00 0.00 0.00 55 1015.2
20260507114038 22 170 0.0 0.0 0.00 0.00 0.00 55 1015.3
20260507113528 22 170 0.0 0.0 0.00 0.00 0.00 55 1015.3
20260507113030 22 170 0.0 0.0 0.00 0.00 0.00 55 1015.3
20260507112527 22 170 0.0 0.0 0.00 0.00 0.00 53 1015.3
20260507112027 22 170 0.0 0.0 0.00 0.00 0.00 53 1015.4
20260507111526 22 170 0.0 0.0 0.00 0.00 0.00 52 1015.4
20260507111024 22 170 0.0 0.0 0.00 0.00 0.00 51 1015.3
20260507110524 22 170 0.0 0.0 0.00 0.00 0.00 50 1015.5
20260507110030 22 170 0.0 0.0 0.00 0.00 0.00 50 1015.6
20260507105525 22 170 0.0 0.0 0.00 0.00 0.00 49 1015.6
20260507105023 22 170 0.0 0.0 0.00 0.00 0.00 49 1015.6
20260507104522 22 170 0.0 0.0 0.00 0.00 0.00 50 1015.6
20260507104021 22 170 0.0 0.0 0.00 0.00 0.00 49 1015.7
20260507103520 22 170 0.0 0.0 0.00 0.00 0.00 48 1015.7
20260507103023 22 170 0.0 0.0 0.00 0.00 0.00 49 1015.8
20260507102519 22 170 0.0 0.0 0.00 0.00 0.00 52 1015.8
20260507102018 22 170 0.0 0.0 0.00 0.00 0.00 53 1015.7
20260507101518 21 170 0.0 0.0 0.00 0.00 0.00 52 1015.8
20260507101018 21 170 0.0 0.0 0.00 0.00 0.00 51 1015.9
20260507100518 21 170 0.0 0.0 0.00 0.00 0.00 52 1015.9
20260507100016 22 170 0.0 0.0 0.00 0.00 0.00 52 1016.0
20260507095515 22 170 0.0 0.0 0.00 0.00 0.00 54 1016.0
20260507095015 22 170 0.0 0.0 0.00 0.00 0.00 54 1015.9
20260507094515 21 170 0.0 0.0 0.00 0.00 0.00 54 1015.9
20260507094014 21 170 0.0 0.0 0.00 0.00 0.00 54 1016.0
20260507093513 21 170 0.0 0.0 0.00 0.00 0.00 55 1016.0
20260507093013 21 170 0.0 0.0 0.00 0.00 0.00 55 1016.0
20260507092513 21 170 0.0 0.0 0.00 0.00 0.00 59 1016.0
20260507092011 21 170 0.0 0.0 0.00 0.00 0.00 57 1016.0
20260507091511 21 170 0.0 0.0 0.00 0.00 0.00 59 1016.1
20260507091010 21 170 0.0 0.0 0.00 0.00 0.00 59 1016.0
20260507090510 21 170 0.0 0.0 0.00 0.00 0.00 59 1016.0
20260507090011 21 170 0.0 0.0 0.00 0.00 0.00 60 1016.0
20260507085508 21 170 0.0 0.0 0.00 0.00 0.00 59 1016.0
20260507085008 21 170 0.0 0.0 0.00 0.00 0.00 57 1016.0
20260507084512 21 170 0.0 0.0 0.00 0.00 0.00 57 1015.9
20260507084006 21 170 0.0 0.0 0.00 0.00 0.00 59 1015.9
20260507083505 21 170 0.0 0.0 0.00 0.00 0.00 58 1016.0
20260507083005 21 170 0.0 0.0 0.00 0.00 0.00 60 1015.9
20260507082504 21 170 0.0 0.0 0.00 0.00 0.00 60 1015.9
20260507082003 21 170 0.0 0.0 0.00 0.00 0.00 62 1015.9
20260507081503 21 170 0.0 0.0 0.00 0.00 0.00 62 1016.0
20260507081003 20 170 0.0 0.0 0.00 0.00 0.00 62 1016.0
20260507080504 20 170 0.0 0.0 0.00 0.00 0.00 63 1016.0
20260507080002 20 170 0.0 0.0 0.00 0.00 0.00 63 1016.0
20260507075502 20 170 0.0 0.0 0.00 0.00 0.00 64 1016.0
20260507075102 20 170 0.0 0.0 0.00 0.00 0.00 65 1016.0
20260507074601 19 170 0.0 0.0 0.00 0.00 0.00 66 1016.1
20260507074058 19 170 0.0 0.0 0.00 0.00 0.00 66 1016.0
20260507073557 18 170 0.0 0.0 0.00 0.00 0.00 65 1015.9
20260507073056 18 170 0.0 0.0 0.00 0.00 0.00 66 1015.9
20260507072556 18 170 0.0 0.0 0.00 0.00 0.00 67 1015.9
20260507072055 18 170 0.0 0.0 0.00 0.00 0.00 66 1015.9
20260507071554 18 170 0.0 0.0 0.00 0.00 0.00 66 1015.9
20260507071054 18 170 0.0 0.0 0.00 0.00 0.00 65 1016.0
20260507070554 18 170 0.0 0.0 0.00 0.00 0.00 65 1016.0
20260507070054 18 170 0.0 0.0 0.00 0.00 0.00 65 1015.9
20260507065551 18 170 0.0 0.0 0.00 0.00 0.00 65 1015.8
20260507065050 18 170 0.0 0.0 0.00 0.00 0.00 65 1015.8
20260507064606 18 170 0.0 0.0 0.00 0.00 0.00 65 1015.8
20260507064050 18 170 0.0 0.0 0.00 0.00 0.00 66 1015.8
20260507063549 19 170 0.0 0.0 0.00 0.00 0.00 66 1015.8
20260507063053 18 170 0.0 0.0 0.00 0.00 0.00 66 1015.8
20260507062547 18 170 0.0 0.0 0.00 0.00 0.00 65 1015.8
20260507062047 18 170 0.0 0.0 0.00 0.00 0.00 65 1015.8
20260507061546 18 170 0.0 0.0 0.00 0.00 0.00 65 1015.7
20260507061044 18 170 0.0 0.0 0.00 0.00 0.00 65 1015.6
20260507060543 18 170 0.0 0.0 0.00 0.00 0.00 65 1015.6
20260507060043 18 170 0.0 0.0 0.00 0.00 0.00 65 1015.6
20260507055541 18 170 0.0 0.0 0.00 0.00 0.00 67 1015.4
20260507055041 18 170 0.0 0.0 0.00 0.00 0.00 67 1015.5
20260507054542 17 170 0.0 0.0 0.00 0.00 0.00 70 1015.4
20260507054140 17 170 0.0 0.0 0.00 0.00 0.00 72 1015.3
20260507053539 17 170 0.0 0.0 0.00 0.00 0.00 74 1015.4
20260507053038 17 170 0.0 0.0 0.00 0.00 0.00 73 1015.5
20260507052538 17 170 0.0 0.0 0.00 0.00 0.00 72 1015.4
20260507052036 17 170 0.0 0.0 0.00 0.00 0.00 73 1015.3
20260507051535 17 170 0.0 0.0 0.00 0.00 0.00 73 1015.3
20260507051034 17 170 0.0 0.0 0.00 0.00 0.00 73 1015.2
20260507050532 17 170 0.0 0.0 0.00 0.00 0.00 72 1015.1
20260507050038 17 170 0.0 0.0 0.00 0.00 0.00 71 1015.1
20260507045534 17 170 0.0 0.0 0.00 0.00 0.00 70 1015.0
20260507045030 17 170 0.0 0.0 0.00 0.00 0.00 70 1015.0
20260507044529 17 170 0.0 0.0 0.00 0.00 0.00 71 1014.9
20260507044028 17 170 0.0 0.0 0.00 0.00 0.00 70 1014.9
20260507043527 17 170 0.0 0.0 0.00 0.00 0.00 70 1014.9
20260507043027 17 170 0.0 0.0 0.00 0.00 0.00 70 1014.8
20260507042525 17 170 0.0 0.0 0.00 0.00 0.00 70 1014.8
20260507042025 17 170 0.0 0.0 0.00 0.00 0.00 69 1014.7
20260507041537 17 170 0.0 0.0 0.00 0.00 0.00 68 1014.7
20260507041023 17 170 0.0 0.0 0.00 0.00 0.00 68 1014.7
20260507040524 17 170 0.0 0.0 0.00 0.00 0.00 67 1014.6
20260507040020 17 170 0.0 0.0 0.00 0.00 0.00 67 1014.7
20260507035519 17 170 0.0 0.0 0.00 0.00 0.00 67 1014.6
20260507035020 17 170 0.0 0.0 0.00 0.00 0.00 66 1014.5
20260507034517 17 170 0.0 0.0 0.00 0.00 0.00 65 1014.4
20260507034015 17 170 0.0 0.0 0.00 0.00 0.00 65 1014.3
20260507033514 17 170 0.0 0.0 0.00 0.00 0.00 65 1014.2
20260507033014 18 170 0.0 0.0 0.00 0.00 0.00 64 1014.2
20260507032512 18 170 0.0 0.0 0.00 0.00 0.00 64 1014.2
20260507032010 18 170 0.0 0.0 0.00 0.00 0.00 64 1014.1
20260507031509 18 170 0.0 0.0 0.00 0.00 0.00 63 1014.1
20260507031008 18 170 0.0 0.0 0.00 0.00 0.00 63 1014.2
20260507030507 18 170 0.0 0.0 0.00 0.00 0.00 63 1014.1
20260507030006 18 170 0.0 0.0 0.00 0.00 0.00 62 1014.1
20260507025508 18 170 0.0 0.0 0.00 0.00 0.00 62 1014.1
20260507025003 18 170 0.0 0.0 0.00 0.00 0.00 62 1014.0
20260507024505 18 170 0.0 0.0 0.00 0.00 0.00 61 1014.0
20260507024004 18 170 0.0 0.0 0.00 0.00 0.00 61 1013.9
20260507023600 18 170 0.0 0.0 0.00 0.00 0.00 61 1013.7
20260507023113 18 170 0.0 0.0 0.00 0.00 0.00 60 1013.8
20260507022600 18 170 0.0 0.0 0.00 0.00 0.00 60 1013.6
20260507022057 18 170 0.0 0.0 0.00 0.00 0.00 60 1013.6
20260507021556 18 170 0.0 0.0 0.00 0.00 0.00 60 1013.6
20260507021054 18 170 0.0 0.0 0.00 0.00 0.00 59 1013.7
20260507020553 18 170 0.0 0.0 0.00 0.00 0.00 59 1013.6
20260507020052 19 170 0.0 0.0 0.00 0.00 0.00 59 1013.6
20260507015550 19 170 0.0 0.0 0.00 0.00 0.00 58 1013.5
20260507015050 19 170 0.0 0.0 0.00 0.00 0.00 58 1013.4
20260507014602 19 170 0.0 0.0 0.00 0.00 0.00 58 1013.4
20260507014050 19 170 0.0 0.0 0.00 0.00 0.00 58 1013.5
20260507013549 19 170 0.0 0.0 0.00 0.00 0.00 57 1013.5
20260507013109 19 170 0.0 0.0 0.00 0.00 0.00 57 1013.4
20260507012544 19 170 0.0 0.0 0.00 0.00 0.00 57 1013.4
20260507012044 19 170 0.0 0.0 0.00 0.00 0.00 57 1013.4
20260507011543 19 170 0.0 0.0 0.00 0.00 0.00 57 1013.3
20260507011042 20 170 0.0 0.0 0.00 0.00 0.00 56 1013.4
20260507010640 20 170 0.0 0.0 0.00 0.00 0.00 56 1013.3
20260507010039 20 170 0.0 0.0 0.00 0.00 0.00 56 1013.3
20260507005538 20 170 0.0 0.0 0.00 0.00 0.00 55 1013.3
20260507005037 20 170 0.0 0.0 0.00 0.00 0.00 55 1013.3
20260507004537 20 170 0.0 0.0 0.00 0.00 0.00 55 1013.3
20260507004037 20 170 0.0 0.0 0.00 0.00 0.00 54 1013.4
20260507003536 20 170 0.0 0.0 0.00 0.00 0.00 55 1013.3
20260507003037 20 170 0.0 0.0 0.00 0.00 0.00 55 1013.2
20260507002533 20 170 0.0 0.0 0.00 0.00 0.00 55 1013.2
20260507002032 20 170 0.0 0.0 0.00 0.00 0.00 56 1013.2
20260507001531 20 170 0.0 0.0 0.00 0.00 0.00 56 1013.1
20260507001031 20 170 0.0 0.0 0.00 0.00 0.00 56 1013.2
20260507000533 20 170 0.0 0.0 0.00 0.00 0.00 56 1013.1
20260507000031 20 170 0.0 0.0 0.00 0.00 0.00 56 1013.0
20260506235527 20 170 0.0 0.0 0.00 0.00 0.00 56 1013.0
20260506235027 20 170 0.0 0.0 0.00 0.00 0.00 56 1013.0
20260506234525 20 170 0.0 0.0 0.00 0.00 0.00 56 1012.9
20260506234025 20 170 0.0 0.0 0.00 0.00 0.00 55 1013.0
20260506233523 20 170 0.0 0.0 0.00 0.00 0.00 55 1013.0
20260506233023 20 170 0.0 0.0 0.00 0.00 0.00 55 1012.9
20260506232522 20 170 0.0 0.0 0.00 0.00 0.00 54 1012.9
20260506232018 21 170 0.0 0.0 0.00 0.00 0.00 54 1012.8
20260506231619 21 170 0.0 0.0 0.00 0.00 0.00 54 1012.8
20260506231017 21 170 0.0 0.0 0.00 0.00 0.00 54 1012.8
20260506230514 21 170 0.0 0.0 0.00 0.00 0.00 54 1012.8
20260506230015 21 170 0.0 0.0 0.00 0.00 0.00 53 1012.6
20260506225516 21 170 0.0 0.0 0.00 0.00 0.00 53 1012.5
20260506225011 21 170 0.0 0.0 0.00 0.00 0.00 53 1012.4
20260506224509 21 170 0.0 0.0 0.00 0.00 0.00 53 1012.4
20260506224006 21 170 0.0 0.0 0.00 0.00 0.00 52 1012.2
20260506223505 21 170 0.0 0.0 0.00 0.00 0.00 52 1012.1
20260506223005 22 170 0.0 0.0 0.00 0.00 0.00 51 1012.0
20260506222503 22 170 0.0 0.0 0.00 0.00 0.00 51 1012.0
20260506222002 22 170 0.0 0.0 0.00 0.00 0.00 51 1011.9
20260506221502 22 170 0.0 0.0 0.00 0.00 0.00 51 1011.9
20260506221100 22 170 0.0 0.0 0.00 0.00 0.00 50 1011.8
20260506220600 22 170 0.0 0.0 0.00 0.00 0.00 50 1011.8
20260506220059 22 170 0.0 0.0 0.00 0.00 0.00 50 1011.8
20260506215559 22 170 0.0 0.0 0.00 0.00 0.00 50 1011.8
20260506215056 22 170 0.0 0.0 0.00 0.00 0.00 50 1011.8
20260506214608 22 170 0.0 0.0 0.00 0.00 0.00 49 1011.8
20260506214058 22 170 0.0 0.0 0.00 0.00 0.00 49 1011.7
20260506213556 22 170 0.0 0.0 0.00 0.00 0.00 49 1011.5
20260506213054 22 170 0.0 0.0 0.00 0.00 0.00 48 1011.6
20260506212551 22 170 0.0 0.0 0.00 0.00 0.00 49 1011.5
20260506212054 22 170 0.0 0.0 0.00 0.00 0.00 48 1011.7
20260506211551 22 170 0.0 0.0 0.00 0.00 0.00 48 1011.6
20260506211049 22 170 0.0 0.0 0.00 0.00 0.00 48 1011.7
20260506210548 22 170 0.0 0.0 0.00 0.00 0.00 48 1011.6